User: anonymous   Login
Location: Unspecified
(0.0000°N, 0.0000°E)
Time: 20:47:37
(UTC+00:00)
Language:

OBJECT B - Orbit

View from above orbital plane
View from above orbital plane
View from above satellite
View from above satellite

Ground track
Ground track

The orbit is defined by the following mean orbital elements,

1 56744U          26145.62941190 +.00000000 +00000-0 +48837-3 0 00002
2 56744  97.5279 350.9338 0006580  58.7077 301.4813 15.41338872    03
Epoch (UTC): 25 May 2026 15:06:21
Eccentricity: 0.0006580
inclination: 97.5279°
perigee height: 438 km
apogee height: 447 km
right ascension of ascending node: 350.9338°
argument of perigee: 58.7077°
revolutions per day: 15.41338872
mean anomaly at epoch: 301.4813°

The dashed part of the orbit path shows where the satellite is in the earth's shadow,  

DLR